When you browse on this site, cookies collect data to enhance your experience and personalize the content and advertising you see.
Visit our Privacy Policy to learn more. By continuing to use the site, you agree to this use of cookies and data.
  • în România
  • Lista ţărilor
  • Pe 7 zile
  • Temperatura apei
  • Meteo pe hartă
  • Widget-uri
  • user-avatar
    Intrare

    Meteo pe oră la Saint-Fons

    Astăzi, 19 Septembrie, Joi

    Timp Temperatura Precipitaţii Vânt Presiune Umiditate
    00:00 +14°C° 0 mm 2 m/s 746 mmHg 75%
    01:00 +13°C° 0 mm 2 m/s 746 mmHg 75%
    02:00 +12°C° 0 mm 2 m/s 746 mmHg 75%
    03:00 +10°C° 0 mm 2 m/s 746 mmHg 74%
    04:00 +10°C° 0 mm 2 m/s 746 mmHg 75%
    05:00 +10°C° 0 mm 2 m/s 746 mmHg 75%
    06:00 +10°C° 0 mm 2 m/s 746 mmHg 76%
    07:00 +12°C° 0 mm 2 m/s 746 mmHg 71%
    08:00 +14°C° 0 mm 2 m/s 746 mmHg 65%
    09:00 +16°C° 0 mm 2 m/s 746 mmHg 60%
    10:00 +17°C° 0 mm 2 m/s 746 mmHg 57%
    11:00 +19°C° 0 mm 3 m/s 746 mmHg 53%
    12:00 +21°C° 0 mm 3 m/s 746 mmHg 49%
    13:00 +21°C° 0 mm 3 m/s 746 mmHg 48%
    14:00 +22°C° 0 mm 3 m/s 746 mmHg 47%
    15:00 +22°C° 0 mm 3 m/s 746 mmHg 46%
    16:00 +20°C° 0 mm 3 m/s 746 mmHg 51%
    17:00 +18°C° 0 mm 2 m/s 746 mmHg 56%
    18:00 +17°C° 0 mm 2 m/s 746 mmHg 61%
    19:00 +16°C° 0 mm 2 m/s 747 mmHg 64%
    20:00 +14°C° 0 mm 1 m/s 747 mmHg 68%
    21:00 +13°C° 0 mm 1 m/s 748 mmHg 71%
    22:00 +13°C° 0 mm 1 m/s 748 mmHg 73%
    23:00 +12°C° 0 mm 1 m/s 748 mmHg 75%

    Mâine, 20 Septembrie, Vineri

    Timp Temperatura Precipitaţii Vânt Presiune Umiditate
    00:00 +12°C° 0 mm 1 m/s 748 mmHg 76%
    01:00 +11°C° 0 mm 1 m/s 747 mmHg 78%
    02:00 +11°C° 0 mm 1 m/s 747 mmHg 79%
    03:00 +10°C° 0 mm 0 m/s 747 mmHg 80%
    04:00 +10°C° 0 mm 0 m/s 747 mmHg 81%
    05:00 +10°C° 0 mm 0 m/s 747 mmHg 81%
    06:00 +10°C° 0 mm 0 m/s 747 mmHg 81%
    07:00 +13°C° 0 mm 1 m/s 747 mmHg 73%
    08:00 +16°C° 0 mm 1 m/s 747 mmHg 66%
    09:00 +19°C° 0 mm 1 m/s 747 mmHg 58%
    10:00 +21°C° 0 mm 1 m/s 746 mmHg 55%
    11:00 +23°C° 0 mm 2 m/s 746 mmHg 52%
    12:00 +25°C° 0 mm 2 m/s 745 mmHg 49%
    13:00 +26°C° 0 mm 2 m/s 745 mmHg 48%
    14:00 +27°C° 0 mm 3 m/s 745 mmHg 47%
    15:00 +28°C° 0 mm 3 m/s 745 mmHg 46%
    16:00 +26°C° 0 mm 3 m/s 745 mmHg 52%
    17:00 +24°C° 0 mm 3 m/s 745 mmHg 58%
    18:00 +21°C° 0 mm 3 m/s 745 mmHg 64%
    19:00 +20°C° 0 mm 3 m/s 745 mmHg 68%
    20:00 +20°C° 0 mm 3 m/s 745 mmHg 72%
    21:00 +19°C° 0 mm 3 m/s 745 mmHg 76%
    22:00 +18°C° 0 mm 2 m/s 745 mmHg 78%
    23:00 +18°C° 0 mm 2 m/s 745 mmHg 80%

    Poimâine, 21 Septembrie, Sâmbătă

    Timp Temperatura Precipitaţii Vânt Presiune Umiditate
    00:00 +17°C° 0 mm 2 m/s 745 mmHg 82%
    01:00 +17°C° 0 mm 2 m/s 745 mmHg 83%
    02:00 +16°C° 0 mm 2 m/s 745 mmHg 84%
    03:00 +16°C° 0 mm 2 m/s 744 mmHg 85%
    04:00 +16°C° 0 mm 2 m/s 744 mmHg 85%
    05:00 +16°C° 0 mm 2 m/s 744 mmHg 85%
    06:00 +15°C° 0 mm 2 m/s 743 mmHg 85%
    07:00 +18°C° 0 mm 3 m/s 744 mmHg 75%
    08:00 +20°C° 0 mm 4 m/s 744 mmHg 65%
    09:00 +23°C° 0 mm 4 m/s 744 mmHg 55%
    10:00 +25°C° 0 mm 4 m/s 743 mmHg 51%
    11:00 +26°C° 0 mm 4 m/s 743 mmHg 47%
    12:00 +28°C° 0 mm 4 m/s 742 mmHg 44%
    13:00 +27°C° 0 mm 4 m/s 742 mmHg 47%
    14:00 +26°C° 0 mm 4 m/s 742 mmHg 51%
    15:00 +25°C° 0 mm 4 m/s 741 mmHg 54%
    16:00 +24°C° 0.4 mm 3 m/s 741 mmHg 64%
    17:00 +21°C° 0.4 mm 3 m/s 741 mmHg 73%
    18:00 +19°C° 0.4 mm 3 m/s 741 mmHg 83%
    19:00 +19°C° 2.4 mm 2 m/s 741 mmHg 87%
    20:00 +18°C° 2.4 mm 2 m/s 741 mmHg 90%
    21:00 +18°C° 2.4 mm 2 m/s 742 mmHg 94%
    22:00 +18°C° 0.3 mm 2 m/s 741 mmHg 94%
    23:00 +18°C° 0.3 mm 2 m/s 741 mmHg 93%

    22 Septembrie, Duminică

    Timp Temperatura Precipitaţii Vânt Presiune Umiditate
    00:00 +17°C° 0.3 mm 2 m/s 741 mmHg 93%
    01:00 +17°C° 0.2 mm 2 m/s 740 mmHg 92%
    02:00 +17°C° 0.2 mm 2 m/s 740 mmHg 91%
    03:00 +17°C° 0.2 mm 2 m/s 740 mmHg 91%
    04:00 +18°C° 0.6 mm 2 m/s 740 mmHg 91%
    05:00 +18°C° 0.6 mm 2 m/s 740 mmHg 90%
    06:00 +18°C° 0.6 mm 2 m/s 740 mmHg 90%
    07:00 +20°C° 0.4 mm 2 m/s 740 mmHg 84%
    08:00 +21°C° 0.4 mm 3 m/s 740 mmHg 78%
    09:00 +24°C° 0.4 mm 3 m/s 740 mmHg 72%
    10:00 +25°C° 0.5 mm 4 m/s 739 mmHg 67%
    11:00 +26°C° 0.5 mm 4 m/s 739 mmHg 62%
    12:00 +28°C° 0.5 mm 5 m/s 739 mmHg 56%
    13:00 +25°C° 1.9 mm 5 m/s 739 mmHg 65%
    14:00 +21°C° 1.9 mm 6 m/s 739 mmHg 73%
    15:00 +17°C° 1.9 mm 7 m/s 739 mmHg 81%
    16:00 +16°C° 5.1 mm 5 m/s 740 mmHg 85%
    17:00 +15°C° 5.1 mm 4 m/s 741 mmHg 89%
    18:00 +15°C° 5.1 mm 2 m/s 742 mmHg 93%
    19:00 +15°C° 1.3 mm 2 m/s 742 mmHg 93%
    20:00 +15°C° 1.3 mm 1 m/s 743 mmHg 92%
    21:00 +15°C° 1.3 mm 1 m/s 744 mmHg 91%
    22:00 +15°C° 0 mm 1 m/s 744 mmHg 90%
    23:00 +15°C° 0 mm 1 m/s 744 mmHg 90%

    23 Septembrie, Luni

    Timp Temperatura Precipitaţii Vânt Presiune Umiditate
    00:00 +15°C° 0 mm 1 m/s 744 mmHg 89%
    01:00 +14°C° 0 mm 1 m/s 744 mmHg 89%
    02:00 +14°C° 0 mm 1 m/s 744 mmHg 88%
    03:00 +13°C° 0 mm 1 m/s 744 mmHg 88%
    04:00 +13°C° 0 mm 1 m/s 744 mmHg 88%
    05:00 +13°C° 0 mm 1 m/s 744 mmHg 88%
    06:00 +13°C° 0 mm 1 m/s 744 mmHg 88%
    07:00 +15°C° 0 mm 1 m/s 744 mmHg 83%
    08:00 +16°C° 0 mm 1 m/s 745 mmHg 77%
    09:00 +19°C° 0 mm 1 m/s 745 mmHg 72%
    10:00 +20°C° 0 mm 1 m/s 744 mmHg 65%
    11:00 +20°C° 0 mm 2 m/s 744 mmHg 59%
    12:00 +21°C° 0 mm 2 m/s 744 mmHg 53%
    13:00 +21°C° 0 mm 2 m/s 743 mmHg 53%
    14:00 +21°C° 0 mm 2 m/s 743 mmHg 53%
    15:00 +23°C° 0 mm 2 m/s 743 mmHg 52%
    16:00 +21°C° 0 mm 1 m/s 743 mmHg 59%
    17:00 +19°C° 0 mm 1 m/s 743 mmHg 65%
    18:00 +18°C° 0 mm 1 m/s 743 mmHg 71%
    19:00 +18°C° 0 mm 1 m/s 744 mmHg 72%
    20:00 +16°C° 0 mm 1 m/s 745 mmHg 73%
    21:00 +16°C° 0 mm 1 m/s 745 mmHg 74%
    22:00 +16°C° 0 mm 1 m/s 745 mmHg 75%
    23:00 +16°C° 0 mm 1 m/s 745 mmHg 76%

    24 Septembrie, Marţi

    Timp Temperatura Precipitaţii Vânt Presiune Umiditate
    00:00 +16°C° 0 mm 1 m/s 745 mmHg 77%
    01:00 +16°C° 0 mm 1 m/s 745 mmHg 78%
    02:00 +16°C° 0 mm 1 m/s 745 mmHg 79%
    03:00 +15°C° 0 mm 0 m/s 745 mmHg 80%
    04:00 +14°C° 0 mm 0 m/s 745 mmHg 80%
    05:00 +14°C° 0 mm 0 m/s 744 mmHg 81%
    06:00 +14°C° 0 mm 0 m/s 744 mmHg 82%
    07:00 +16°C° 0 mm 0 m/s 744 mmHg 75%
    08:00 +18°C° 0 mm 0 m/s 744 mmHg 68%
    09:00 +19°C° 0 mm 0 m/s 744 mmHg 62%
    10:00 +23°C° 0 mm 1 m/s 744 mmHg 58%
    11:00 +24°C° 0 mm 1 m/s 744 mmHg 54%
    12:00 +25°C° 0 mm 1 m/s 743 mmHg 51%
    13:00 +25°C° 0 mm 1 m/s 743 mmHg 51%
    14:00 +25°C° 0 mm 1 m/s 742 mmHg 51%
    15:00 +26°C° 0 mm 1 m/s 742 mmHg 52%
    16:00 +24°C° 0 mm 1 m/s 742 mmHg 57%
    17:00 +23°C° 0 mm 1 m/s 742 mmHg 62%
    18:00 +21°C° 0 mm 1 m/s 742 mmHg 67%
    19:00 +21°C° 0 mm 1 m/s 743 mmHg 67%
    20:00 +21°C° 0 mm 1 m/s 743 mmHg 67%
    21:00 +21°C° 0 mm 1 m/s 743 mmHg 67%
    22:00 +20°C° 0.1 mm 1 m/s 743 mmHg 69%
    23:00 +20°C° 0.1 mm 1 m/s 742 mmHg 71%
    Arată mai mult